Погода в Джурине

Украина / Тернопольская область     49°01′45″N   25°34′38″E
темп.,
°C
ветер,
м/с
пор.,
м/с
влажн.,
%
обл.,
%
осадки,
мм/ч
давл.,
гПа
погр.,
м
22 апреля, чт
чт2200:00+7юз338098 0.1 101541
03:00+6юз3375100 0.1 101652
06:00+6юз3478100 0.0 101654
09:00+10юз4107036 0.0 1016436
12:00+15юз78518 0.1 10151379
15:00+16зюз6947100 0.1 10132178
18:00+13зюз8116255 0.8 1013823
21:00+7ссз71189100 1.8 1017735
23 апреля, пт
пт2300:00+5зсз4889100 2.1 1019426
03:00+4зсз3693100 2.1 1018309
06:00+4зсз3789100 0.0 1019238
09:00+5сз467298 0.0 1020468
12:00+8зсз575396 0.0 10201784
15:00+9зсз7104999 0.2 10192162
18:00+9сз7114718 0.0 10192073
21:00+5зсз356566 0.0 1021108
24 апреля, сб
сб2400:00+3з411771 0.0 1022414
03:00+2зсз613827 0.0 1022478
06:00+1зсз6138867 0.0 1023617
09:00+3зсз697813 0.2 1025803
12:00+7зсз5848100 0.1 10242261
15:00+8сз7941100 0.1 10232460
18:00+9сз68415 0.0 10221672
21:00+5зсз116087 0.0 102310
25 апреля, вс
вс2500:00+4ююз2260100 0.0 102225
03:00+3ююз3663100 0.0 1021116
06:00+3зсз2568100 0.0 1020178
09:00+4зсз3694100 0.1 1021463
12:00+7зсз4670100 0.3 10201166
15:00+7сз6676100 0.9 10201100
18:00+7ссз685773 0.1 10191507
21:00+4с237789 0.1 102074
26 апреля, пн
пн2600:00+2зсз35835 0.0 1021117
03:000з37860 0.0 1021146
06:00−1з38850 0.0 1020179
09:00+4зсз695771 0.0 1020932
12:00+7зсз7944100 0.0 10202260
15:00+9сз61040100 0.0 10182528
18:00+9сз5743100 0.0 10171772
21:00+5з2261100 0.0 101819